WD7OO Weather Reports


time (UTC)temp
C
wind
direction
speed
KPH
gust
KPH
rain 1hr
cm
rain 24hr
cm
rain mn
cm
humidity
%
barometer
mb
20260503174316 15 338 6.4 14.5 0.00 0.00 0.00 49 1013.4
20260503173811 15 291 9.7 14.5 0.00 0.00 0.00 49 1013.4
20260503173308 15 176 14.5 24.1 0.00 0.00 0.00 47 1013.3
20260503172805 15 213 4.8 20.9 0.00 0.00 0.00 50 1013.4
20260503172305 16 183 6.4 8.0 0.00 0.00 0.00 49 1013.6
20260503171758 16 167 4.8 12.9 0.00 0.00 0.00 47 1013.5
20260503171255 15 92 4.8 4.8 0.00 0.00 0.00 48 1013.8
20260503170752 16 302 12.9 17.7 0.00 0.00 0.00 46 1013.9
20260503170249 15 10 6.4 11.3 0.00 0.00 0.00 48 1014.1
20260503160211 15 293 4.8 17.7 0.00 0.00 0.00 48 1014.4
20260503150641 12 155 11.3 16.1 0.00 0.00 0.00 51 1015.3
20260503150137 13 226 4.8 12.9 0.00 0.00 0.00 50 1015.3
20260503131031 10 270 9.7 14.5 0.00 0.00 0.00 53 1015.9
20260503130528 10 262 6.4 9.7 0.00 0.00 0.00 54 1015.8
20260503110419 6 322 1.6 1.6 0.00 0.00 0.00 63 1015.5
20260503090316 3 333 0.0 1.6 0.00 0.00 0.00 75 1015.6
20260503081243 4 333 0.0 1.6 0.00 0.00 0.00 72 1015.8
20260503080738 4 332 0.0 1.6 0.00 0.00 0.00 72 1015.7
20260503080236 4 332 0.0 0.0 0.00 0.00 0.00 71 1015.6
20260503072712 5 317 0.0 1.6 0.00 0.00 0.00 71 1015.7
20260503072209 4 278 1.6 4.8 0.00 0.00 0.00 71 1015.7
20260503071706 4 308 0.0 0.0 0.00 0.00 0.00 76 1016.1
20260503071203 3 294 0.0 0.0 0.00 0.00 0.00 76 1015.9
20260503070659 3 245 0.0 0.0 0.00 0.00 0.00 78 1016.0
20260503070158 3 244 0.0 0.0 0.00 0.00 0.00 80 1016.3
20260503060122 2 304 0.0 0.0 0.00 0.00 0.00 81 1016.6
20260503055114 2 304 0.0 0.0 0.00 0.00 0.00 83 1016.7
20260503054609 2 304 0.0 0.0 0.00 0.00 0.00 83 1016.8
20260503054106 2 304 0.0 0.0 0.00 0.00 0.00 82 1016.7
20260503053604 2 304 0.0 0.0 0.00 0.00 0.00 82 1016.7
20260503053102 2 304 0.0 0.0 0.00 0.00 0.00 83 1016.9
20260503052559 2 304 0.0 0.0 0.00 0.00 0.00 84 1016.8
20260503052055 2 304 0.0 0.0 0.00 0.00 0.00 83 1017.0
20260503051550 2 304 0.0 0.0 0.00 0.00 0.00 83 1016.8
20260503051049 2 304 0.0 0.0 0.00 0.00 0.00 85 1016.8
20260503050544 2 304 0.0 0.0 0.00 0.00 0.00 85 1017.0
20260503050042 2 304 0.0 0.0 0.00 0.00 0.00 84 1016.9
20260503045538 2 304 0.0 0.0 0.00 0.00 0.00 86 1017.0
20260503045036 2 303 0.0 0.0 0.00 0.00 0.00 88 1017.2
20260503044532 2 303 0.0 0.0 0.00 0.00 0.00 89 1017.3
20260503044030 1 303 0.0 0.0 0.00 0.00 0.00 89 1017.2
20260503043526 1 303 0.0 0.0 0.00 0.00 0.00 90 1017.2
20260503043023 2 303 0.0 0.0 0.00 0.00 0.00 90 1017.0
20260503042520 2 303 0.0 0.0 0.00 0.00 0.00 90 1017.2
20260503042016 2 303 0.0 0.0 0.00 0.00 0.00 90 1017.0
20260503041513 2 303 0.0 1.6 0.00 0.00 0.00 90 1017.3
20260503041011 2 303 0.0 0.0 0.00 0.00 0.00 90 1017.2
20260503040508 2 303 0.0 0.0 0.00 0.00 0.00 90 1017.2
20260503040005 2 303 0.0 0.0 0.00 0.00 0.00 89 1017.3
20260503035502 2 303 0.0 0.0 0.00 0.00 0.00 88 1017.3
20260503034959 2 303 0.0 0.0 0.00 0.00 0.00 88 1017.3
20260503034456 2 303 0.0 0.0 0.00 0.00 0.00 87 1017.3
20260503033953 2 303 0.0 0.0 0.00 0.00 0.00 87 1017.5
20260503033450 2 303 0.0 0.0 0.00 0.00 0.00 86 1017.4
20260503032949 2 303 0.0 0.0 0.00 0.00 0.00 85 1017.2
20260503032447 2 303 0.0 0.0 0.00 0.00 0.00 85 1017.3
20260503031944 2 303 0.0 0.0 0.00 0.00 0.00 85 1017.4
20260503031442 2 303 0.0 0.0 0.00 0.00 0.00 85 1017.5
20260503030938 2 303 0.0 0.0 0.00 0.00 0.00 84 1017.5
20260503030434 2 303 0.0 0.0 0.00 0.00 0.00 84 1017.4
20260503025932 2 303 0.0 0.0 0.00 0.00 0.00 83 1017.6
20260503025429 2 303 0.0 0.0 0.00 0.00 0.00 82 1017.6
20260503024926 2 303 0.0 0.0 0.00 0.00 0.00 82 1017.8
20260503024422 2 303 0.0 0.0 0.00 0.00 0.00 81 1017.6
20260503023920 2 303 0.0 0.0 0.00 0.00 0.00 81 1017.6
20260503023417 2 303 0.0 0.0 0.00 0.00 0.00 80 1017.8
20260503022913 3 303 0.0 0.0 0.00 0.00 0.00 79 1017.5
20260503022408 3 303 0.0 0.0 0.00 0.00 0.00 78 1017.7
20260503021904 3 303 0.0 0.0 0.00 0.00 0.00 76 1017.7
20260503021401 3 303 0.0 0.0 0.00 0.00 0.00 74 1017.7
20260503020858 3 303 0.0 0.0 0.00 0.00 0.00 74 1017.7
20260503020356 3 303 0.0 0.0 0.00 0.00 0.00 76 1017.6
20260503015852 3 303 0.0 0.0 0.00 0.00 0.00 76 1017.4
20260503015349 4 303 0.0 0.0 0.00 0.00 0.00 75 1017.4
20260503014845 4 304 0.0 1.6 0.00 0.00 0.00 73 1017.6
20260503014343 4 303 0.0 1.6 0.00 0.00 0.00 73 1017.3
20260503013840 4 303 0.0 0.0 0.00 0.00 0.00 71 1017.3
20260503013337 5 303 0.0 0.0 0.00 0.00 0.00 71 1017.5
20260503012834 5 303 0.0 0.0 0.00 0.00 0.00 71 1017.5
20260503012332 5 303 0.0 0.0 0.00 0.00 0.00 69 1017.4
20260503011828 5 303 0.0 0.0 0.00 0.00 0.00 65 1017.4
20260503011325 5 303 0.0 0.0 0.00 0.00 0.00 65 1017.5
20260503010822 5 303 0.0 0.0 0.00 0.00 0.00 63 1017.4
20260503010319 6 303 0.0 0.0 0.00 0.00 0.00 62 1017.4
20260503005815 6 303 0.0 0.0 0.00 0.00 0.00 62 1017.5
20260503005313 6 303 0.0 0.0 0.00 0.00 0.00 57 1017.5
20260503004809 6 303 0.0 0.0 0.00 0.00 0.00 55 1017.7
20260503004307 7 303 0.0 0.0 0.00 0.00 0.00 54 1017.3
20260503003804 7 303 0.0 0.0 0.00 0.00 0.00 54 1017.5
20260503003301 7 303 0.0 0.0 0.00 0.00 0.00 56 1017.5
20260503002758 8 303 0.0 0.0 0.00 0.00 0.00 52 1017.5
20260503002255 8 303 0.0 1.6 0.00 0.00 0.00 51 1017.4
20260503001751 8 303 0.0 0.0 0.00 0.00 0.00 47 1017.4
20260503001248 8 303 0.0 1.6 0.00 0.00 0.00 47 1017.3
20260503000745 9 306 0.0 3.2 0.00 0.00 0.00 45 1017.4
20260503000242 9 309 0.0 3.2 0.00 0.00 0.00 44 1017.2
20260502235739 10 315 1.6 1.6 0.00 0.00 0.00 43 1017.6
20260502235237 10 315 0.0 3.2 0.00 0.00 0.00 42 1017.6
20260502234733 10 302 0.0 1.6 0.00 0.00 0.00 45 1017.8
20260502234231 10 314 3.2 8.0 0.00 0.00 0.00 40 1017.8
20260502233727 10 306 4.8 8.0 0.00 0.00 0.00 41 1017.6
20260502233224 11 308 4.8 8.0 0.00 0.00 0.00 38 1017.4
20260502232719 10 293 1.6 3.2 0.00 0.00 0.00 38 1017.4
20260502232217 10 310 4.8 11.3 0.00 0.00 0.00 38 1017.7
20260502231713 11 280 3.2 4.8 0.00 0.00 0.00 41 1017.7
20260502231211 10 331 1.6 3.2 0.00 0.00 0.00 41 1017.6
20260502230710 10 311 1.6 8.0 0.00 0.00 0.00 43 1017.4
20260502230207 10 298 3.2 9.7 0.00 0.00 0.00 38 1017.5
20260502225703 10 325 4.8 8.0 0.00 0.00 0.00 40 1017.5
20260502225200 11 260 4.8 8.0 0.00 0.00 0.00 37 1017.9
20260502224656 11 315 0.0 8.0 0.00 0.00 0.00 41 1017.8
20260502224153 11 305 1.6 3.2 0.00 0.00 0.00 39 1017.8
20260502223651 11 342 1.6 8.0 0.00 0.00 0.00 38 1017.9
20260502223149 11 297 3.2 4.8 0.00 0.00 0.00 40 1017.7
20260502222646 11 335 1.6 3.2 0.00 0.00 0.00 39 1017.8
20260502222143 11 292 4.8 8.0 0.00 0.00 0.00 39 1017.7
20260502221638 11 303 3.2 8.0 0.00 0.00 0.00 38 1017.9
20260502221136 11 325 4.8 4.8 0.00 0.00 0.00 38 1017.9
20260502220632 12 325 6.4 8.0 0.00 0.00 0.00 37 1018.0
20260502220128 11 312 3.2 4.8 0.00 0.00 0.00 41 1017.8
20260502215625 11 316 3.2 8.0 0.00 0.00 0.00 35 1017.9
20260502215122 11 327 8.0 12.9 0.00 0.00 0.00 38 1017.8
20260502214619 11 318 4.8 11.3 0.00 0.00 0.00 38 1017.9
20260502214116 10 299 4.8 16.1 0.00 0.00 0.00 37 1017.8
20260502213614 11 313 1.6 14.5 0.00 0.00 0.00 41 1017.8
20260502213111 11 357 3.2 4.8 0.00 0.00 0.00 41 1018.0
20260502212610 11 0 3.2 8.0 0.00 0.00 0.00 39 1017.9
20260502212108 11 308 8.0 14.5 0.00 0.00 0.00 38 1018.0
20260502211603 11 8 4.8 11.3 0.00 0.00 0.00 38 1017.8
20260502211100 10 257 6.4 9.7 0.00 0.00 0.00 39 1018.0
20260502210557 11 0 4.8 8.0 0.00 0.00 0.00 35 1018.1
20260502210054 11 335 4.8 14.5 0.00 0.00 0.00 36 1017.9
20260502205550 11 325 4.8 9.7 0.00 0.00 0.00 35 1017.9
20260502205048 10 297 4.8 8.0 0.00 0.00 0.00 35 1018.0
20260502204544 11 295 6.4 9.7 0.00 0.00 0.00 36 1018.2
20260502204042 11 2 4.8 8.0 0.00 0.00 0.00 34 1018.2
20260502203539 11 274 4.8 9.7 0.00 0.00 0.00 37 1018.2
20260502203036 11 252 8.0 12.9 0.00 0.00 0.00 38 1018.3
20260502202532 11 144 3.2 4.8 0.00 0.00 0.00 40 1018.4
20260502202031 11 231 4.8 8.0 0.00 0.00 0.00 39 1018.4
20260502201526 11 304 6.4 9.7 0.00 0.00 0.00 38 1018.6
20260502201023 11 22 4.8 12.9 0.00 0.00 0.00 37 1018.4
20260502200519 10 314 4.8 8.0 0.00 0.00 0.00 40 1018.5
20260502200017 10 279 3.2 8.0 0.00 0.00 0.00 40 1018.6
20260502195514 11 7 6.4 9.7 0.00 0.00 0.00 41 1018.8
20260502195010 11 300 4.8 12.9 0.00 0.00 0.00 39 1018.8
20260502194507 10 332 3.2 8.0 0.00 0.00 0.00 42 1018.7
20260502194003 11 23 4.8 9.7 0.00 0.00 0.00 41 1018.9
20260502193501 10 353 4.8 11.3 0.00 0.00 0.00 41 1018.9
20260502192956 10 323 4.8 8.0 0.00 0.00 0.00 43 1018.9
20260502192453 10 323 1.6 3.2 0.00 0.00 0.00 38 1019.0
20260502191950 11 253 6.4 20.9 0.00 0.00 0.00 42 1019.0
20260502191447 11 348 1.6 8.0 0.00 0.00 0.00 40 1019.3
20260502190945 10 337 6.4 8.0 0.00 0.00 0.00 40 1018.9
20260502190442 10 238 8.0 16.1 0.00 0.00 0.00 38 1019.1
20260502185938 10 320 3.2 4.8 0.00 0.00 0.00 44 1019.1
20260502185434 10 314 3.2 8.0 0.00 0.00 0.00 46 1019.2
20260502184931 10 270 4.8 8.0 0.00 0.00 0.00 45 1019.0
20260502184426 10 320 3.2 4.8 0.00 0.00 0.00 49 1019.3
20260502183923 10 318 3.2 4.8 0.00 0.00 0.00 44 1019.2
20260502183419 10 312 4.8 8.0 0.00 0.00 0.00 45 1019.2
20260502182915 10 304 4.8 8.0 0.00 0.00 0.00 46 1019.3
20260502182410 10 303 3.2 8.0 0.00 0.00 0.00 45 1019.3
20260502181907 11 262 11.3 14.5 0.00 0.00 0.00 42 1019.3
20260502181405 11 236 4.8 9.7 0.00 0.00 0.00 43 1019.3
20260502180904 10 318 3.2 4.8 0.00 0.00 0.00 47 1019.2
20260502180400 10 248 4.8 4.8 0.00 0.00 0.00 42 1019.3